Location: ????????
(55.3155°N, 39.2900°E)
Time: 13:32:55
(UTC+00:00)

SAR-Lupe-1 - Pass Details

Date: 14 April 2024
Orbit: 479 x 482 km, 98.1° (Epoch: 04 May)

Event Time Altitude Azimuth Distance (km) Brightness Sun altitude
Rises 00:21:50 0° 14° (NNE) 2,563 8.8 -15.3°
Reaches altitude 10° 00:23:54 10° 13° (NNE) 1,677 7.7 -15.0°
Maximum altitude 00:27:30 79° 288° (WNW) 500 4.0 -14.7°
Enters shadow 00:29:27 25° 204° (SSW) 1,001 5.1 -14.5°
